N8QYG-1 Weather Reports


time (UTC)temp
F
wind
direction
speed
knots
gust
knots
rain 1hr
in
rain 24hr
in
rain mn
in
humidity
%
barometer
mb
20260506202017 54 305 2.6 2.6 0.00 0.00 0.00 4 1009.1
20260506201019 54 273 3.5 5.2 0.00 0.00 0.00 4 1009.1
20260506200017 56 16 4.3 4.3 0.00 0.00 0.00 4 1009.1
20260506195018 56 9 7.8 8.7 0.00 0.00 0.00 5 1009.1
20260506194019 54 300 3.5 3.5 0.00 0.00 0.00 4 1009.5
20260506193019 53 22 2.6 2.6 0.00 0.00 0.00 4 1009.5
20260506192018 55 294 4.3 4.3 0.00 0.00 0.00 4 1009.6
20260506191019 54 13 4.3 5.2 0.00 0.00 0.00 4 1009.2
20260506190019 54 325 3.5 4.3 0.00 0.00 0.00 4 1009.2
20260506185019 54 250 3.5 5.2 0.00 0.00 0.00 4 1009.1
20260506184018 55 344 4.3 5.2 0.00 0.00 0.00 4 1009.1
20260506183021 54 303 2.6 2.6 0.00 0.00 0.00 4 1009.1
20260506182019 53 325 5.2 5.2 0.00 0.00 0.00 5 1009.2
20260506181020 52 319 5.2 7.0 0.00 0.00 0.00 4 1009.1
20260506180019 52 303 3.5 3.5 0.00 0.00 0.00 4 1009.1
20260506175018 52 270 0.9 1.7 0.00 0.00 0.00 4 1009.5
20260506174019 52 305 6.1 7.0 0.00 0.00 0.00 4 1009.8
20260506173018 52 302 0.9 2.6 0.00 0.00 0.00 4 1009.8
20260506172018 51 5 5.2 5.2 0.00 0.00 0.00 4 1009.6
20260506171018 51 313 2.6 3.5 0.00 0.00 0.00 4 1009.4
20260506170018 51 324 4.3 6.1 0.00 0.00 0.00 5 1009.4
20260506165019 51 336 6.1 6.1 0.00 0.00 0.00 5 1009.2
20260506164018 51 10 5.2 5.2 0.00 0.00 0.00 4 1009.2
20260506163019 51 311 2.6 5.2 0.00 0.00 0.00 4 1009.2
20260506162017 52 292 7.8 10.4 0.00 0.00 0.00 4 1009.3
20260506161019 53 355 4.3 8.7 0.00 0.00 0.00 4 1009.1
20260506160017 53 245 9.6 9.6 0.00 0.00 0.00 4 1009.1
20260506155019 52 263 3.5 3.5 0.00 0.00 0.00 4 1009.0
20260506154019 53 355 6.1 8.7 0.00 0.00 0.00 4 1009.0
20260506153020 53 317 2.6 2.6 0.00 0.00 0.00 5 1009.0
20260506152019 53 245 7.8 7.8 0.00 0.00 0.00 5 1008.7
20260506151020 53 15 10.4 10.4 0.00 0.00 0.00 5 1008.6
20260506150019 52 319 9.6 9.6 0.00 0.00 0.00 5 1008.6
20260506145020 52 44 7.0 7.0 0.00 0.00 0.00 5 1008.5
20260506144020 53 342 4.3 5.2 0.00 0.00 0.00 5 1008.2
20260506143018 52 328 0.9 5.2 0.00 0.00 0.00 4 1008.2
20260506142018 52 0 6.1 8.7 0.00 0.00 0.00 5 1008.3
20260506141019 51 355 9.6 10.4 0.00 0.00 0.00 5 1008.0
20260506140018 51 0 0.9 1.7 0.00 0.00 0.00 5 1008.0
20260506135020 50 320 6.1 6.1 0.00 0.00 0.00 5 1008.0
20260506134021 50 299 3.5 4.3 0.00 0.00 0.00 5 1007.9
20260506133019 49 30 2.6 4.3 0.00 0.00 0.00 6 1007.9
20260506132018 49 301 0.9 2.6 0.00 0.00 0.00 6 1007.7
20260506131019 48 305 0.9 1.7 0.00 0.00 0.00 6 1007.4
20260506130019 47 329 0.9 1.7 0.00 0.00 0.00 6 1007.4
20260506125018 47 333 2.6 3.5 0.00 0.00 0.00 6 1007.4
20260506124017 46 327 1.7 1.7 0.00 0.00 0.00 6 1007.1
20260506123019 46 13 0.9 1.7 0.00 0.00 0.00 6 1007.1
20260506122017 45 315 1.7 2.6 0.00 0.00 0.00 6 1007.0
20260506121018 45 314 0.9 1.7 0.00 0.00 0.00 6 1006.9
20260506120019 45 319 1.7 1.7 0.00 0.00 0.00 6 1006.9
20260506115018 45 300 1.7 1.7 0.00 0.00 0.00 6 1006.9
20260506114018 45 307 4.3 4.3 0.00 0.00 0.00 6 1006.6
20260506113020 45 309 2.6 2.6 0.00 0.00 0.00 6 1006.6
20260506112019 45 300 0.9 1.7 0.00 0.00 0.00 6 1006.4
20260506111019 45 313 2.6 4.3 0.00 0.00 0.00 6 1006.2
20260506110018 45 313 0.9 0.9 0.00 0.00 0.00 6 1006.2
20260506105019 46 292 1.7 2.6 0.00 0.00 0.00 6 1006.1
20260506104017 46 326 2.6 3.5 0.00 0.00 0.00 6 1005.7
20260506103018 46 334 1.7 2.6 0.00 0.00 0.00 6 1005.7
20260506102019 46 306 0.9 2.6 0.00 0.00 0.00 6 1005.7
20260506101019 46 318 1.7 1.7 0.00 0.00 0.00 6 1005.4
20260506100017 46 319 2.6 2.6 0.00 0.00 0.00 6 1005.4
20260506095019 46 0 0.0 0.0 0.00 0.00 0.00 6 1005.6
20260506094018 47 0 0.0 0.9 0.00 0.00 0.00 6 1005.1
20260506093019 47 319 0.9 1.7 0.00 0.00 0.00 6 1005.1
20260506092018 47 319 2.6 2.6 0.00 0.00 0.00 6 1005.4
20260506091019 47 319 1.7 1.7 0.00 0.00 0.00 5 1005.0
20260506090017 47 5 0.9 1.7 0.00 0.00 0.00 5 1005.0
20260506085019 47 355 3.5 4.3 0.00 0.00 0.00 5 1004.9
20260506084018 47 351 0.9 1.7 0.00 0.00 0.00 6 1005.1
20260506083018 47 340 0.9 2.6 0.00 0.00 0.00 5 1005.1
20260506082018 47 0 0.0 0.9 0.00 0.00 0.00 5 1005.0
20260506081018 47 302 0.9 1.7 0.00 0.00 0.00 6 1004.8
20260506073018 47 292 2.6 3.5 0.00 0.00 0.00 6 1004.9
20260506072018 47 291 0.9 0.9 0.00 0.00 0.00 6 1004.7
20260506071020 47 248 1.7 1.7 0.00 0.00 0.00 6 1004.9
20260506062018 48 252 1.7 1.7 0.00 0.00 0.00 6 1005.2
20260506061019 48 252 1.7 1.7 0.00 0.00 0.00 6 1005.5
20260506051019 48 247 0.9 1.7 0.00 0.00 0.00 6 1005.2
20260506045019 49 247 0.9 0.9 0.00 0.00 0.00 5 1005.2
20260506044019 49 0 0.0 0.0 0.00 0.00 0.00 5 1005.2
20260506043019 49 0 0.0 0.0 0.00 0.00 0.00 5 1005.2
20260506042019 49 0 0.0 0.0 0.00 0.00 0.00 5 1005.1
20260506041019 49 247 1.7 1.7 0.00 0.00 0.00 5 1004.9
20260506040019 49 247 2.6 2.6 0.00 0.00 0.00 5 1004.9
20260506035018 49 0 0.0 0.0 0.00 0.00 0.00 5 1004.9
20260506034018 50 247 1.7 1.7 0.00 0.00 0.00 5 1005.0
20260506033019 50 0 0.0 0.9 0.00 0.00 0.00 5 1005.0
20260506032020 50 0 0.0 0.0 0.00 0.00 0.00 5 1005.2
20260506031020 50 247 2.6 2.6 0.00 0.00 0.00 5 1005.1
20260506030019 50 0 0.0 0.9 0.00 0.00 0.00 5 1005.1
20260506025018 50 257 0.9 0.9 0.00 0.00 0.00 5 1005.1
20260506024018 50 267 3.5 3.5 0.00 0.00 0.00 5 1005.1
20260506023018 50 265 2.6 2.6 0.00 0.00 0.00 5 1005.1
20260506022018 51 265 0.9 2.6 0.00 0.00 0.00 5 1005.1
20260506021018 51 259 2.6 2.6 0.00 0.00 0.00 5 1005.1
20260506020018 51 270 3.5 3.5 0.00 0.00 0.00 5 1005.1
20260506015019 51 290 0.9 0.9 0.00 0.00 0.00 4 1004.6
20260506014018 51 290 1.7 2.6 0.00 0.00 0.00 4 1004.5
20260506013018 51 288 1.7 1.7 0.00 0.00 0.00 4 1004.5
20260506012018 51 271 1.7 1.7 0.00 0.00 0.00 5 1004.4
20260506011018 52 280 3.5 4.3 0.00 0.00 0.00 5 1004.3
20260506010017 52 254 2.6 5.2 0.00 0.00 0.00 5 1004.3
20260506005018 52 270 2.6 3.5 0.00 0.00 0.00 5 1004.4
20260506004018 52 267 1.7 2.6 0.00 0.00 0.00 5 1004.5
20260506003019 52 259 0.9 1.7 0.00 0.00 0.00 5 1004.5
20260506002018 52 262 1.7 2.6 0.00 0.07 0.00 5 1004.4
20260506001019 52 262 0.9 1.7 0.00 0.07 0.00 5 1004.2
20260506000018 53 260 2.6 2.6 0.00 0.07 0.00 5 1004.2
20260505235019 53 269 1.7 1.7 0.00 0.07 0.00 5 1003.9
20260505234018 53 296 0.9 1.7 0.00 0.07 0.00 5 1003.6
20260505233018 53 281 0.9 1.7 0.00 0.07 0.00 5 1003.6
20260505232018 53 302 1.7 2.6 0.00 0.07 0.00 5 1003.6
20260505231019 54 263 1.7 2.6 0.00 0.07 0.00 5 1003.6
20260505230019 54 310 2.6 2.6 0.00 0.07 0.00 5 1003.6
20260505225020 54 251 1.7 3.5 0.00 0.07 0.00 5 1003.7
20260505224018 54 282 2.6 2.6 0.00 0.07 0.00 5 1003.7
20260505223018 54 294 6.1 6.1 0.00 0.07 0.00 5 1003.7
20260505222018 54 312 3.5 4.3 0.00 0.07 0.00 5 1003.7
20260505221018 54 272 5.2 7.8 0.00 0.07 0.00 5 1003.5
20260505220018 54 279 2.6 3.5 0.00 0.07 0.00 6 1003.5
20260505215018 55 271 6.1 7.0 0.00 0.07 0.00 6 1003.7
20260505214018 54 265 4.3 4.3 0.00 0.07 0.00 6 1003.7
20260505213018 55 271 6.1 6.1 0.00 0.07 0.00 6 1003.7
20260505212017 54 261 6.1 6.1 0.00 0.07 0.00 6 1003.5
20260505211019 54 312 5.2 7.0 0.00 0.07 0.00 6 1003.7
20260505210019 55 315 3.5 4.3 0.00 0.07 0.00 6 1003.7
20260505205019 55 247 1.7 2.6 0.00 0.07 0.00 6 1003.7
20260505204023 55 254 5.2 6.1 0.00 0.07 0.00 6 1003.8
20260505203018 55 249 1.7 2.6 0.00 0.07 0.00 6 1003.8